Salina, KS

10:51 AM CDT on October 18, 2017 (GMT -0500)
Salina Municipal

Weather History for KSLN - December, 2012

Change the Weather History Date:

Saturday, December 15, 2012

  Actual Average Record
Temperature  
Mean Temperature 47 °F 32 °F  
Max Temperature 58 °F 42 °F 69 °F (1939)
Min Temperature 35 °F 22 °F -15 °F (1989)
Degree Days  
Heating Degree Days 18 33  
Month to date heating degree days 351 468  
Since 1 July heating degree days 1186 1420  
Cooling Degree Days 0 0  
Month to date cooling degree days 0 0  
Year to date cooling degree days 2051 1647  
Moisture  
Dew Point 40 °F    
Average Humidity 71    
Maximum Humidity 86    
Minimum Humidity 55    
Precipitation  
Precipitation 0.00 in 0.03 in 1.61 in (1984)
Month to date precipitation 0.06 0.52  
Year to date precipitation 17.96 31.08  
Sea Level Pressure  
Sea Level Pressure 29.60 in    
Wind  
Wind Speed 10 mph (West)    
Max Wind Speed 30 mph    
Max Gust Speed 38 mph    
Visibility 10 miles    
Events      
T = Trace of Precipitation, MM = Missing Value Source: NWS Daily Summary

Daily Weather History Graph

Daily Weather History Graph

Search for Another Location

Airport or City:

Trip Planner

Search our weather history database for the weather conditions in past years. The results will help you decide how hot, cold, wet, or windy it might be!

Date:

Astronomy

Dec. 15, 2012 Rise Set
Actual Time 7:42 AM CST 5:10 PM CST
Civil Twilight 7:12 AM CST 5:39 PM CST
Nautical Twilight 6:38 AM CST 6:13 PM CST
Astronomical Twilight 6:06 AM CST 6:45 PM CST
Moon 9:36 AM CST (12/15) 8:14 PM CST (12/15)
Length of Visible Light 10h 27m
Length of Day
9h 28m
Waxing Crescent, 8% of the Moon is Illuminated
Dec 15
Waxing Crescent
Dec 19
First Quarter
Dec 28
Full
Jan 4
Last Quarter
Jan 11
New

Hourly Weather History & Observations

Time (CST) Temp. Windchill Dew Point Humidity Pressure Visibility Wind Dir Wind Speed Gust Speed Precip Events Conditions
12:19 AM 48.2 °F - 44.6 °F 87% 29.45 in 10.0 mi South 20.7 mph 38.0 mph N/A   Mostly Cloudy
12:53 AM 48.9 °F - 44.1 °F 83% 29.43 in 10.0 mi South 15.0 mph 26.5 mph N/A   Scattered Clouds
1:53 AM 48.0 °F - 43.0 °F 83% 29.42 in 10.0 mi South 12.7 mph 21.9 mph N/A   Clear
2:53 AM 46.9 °F - 42.1 °F 83% 29.40 in 10.0 mi South 9.2 mph - N/A   Clear
3:53 AM 46.9 °F - 41.0 °F 80% 29.40 in 10.0 mi SSW 9.2 mph - N/A   Partly Cloudy
4:53 AM 46.9 °F - 41.0 °F 80% 29.42 in 10.0 mi WSW 8.1 mph - N/A   Overcast
5:53 AM 46.0 °F 39.6 °F 41.0 °F 83% 29.47 in 10.0 mi WSW 15.0 mph - N/A   Clear
6:53 AM 46.9 °F - 42.1 °F 83% 29.53 in 10.0 mi West 16.1 mph 25.3 mph N/A   Partly Cloudy
7:10 AM 46.4 °F 40.4 °F 42.8 °F 87% 29.54 in 10.0 mi West 13.8 mph - N/A   Mostly Cloudy
7:27 AM 48.2 °F - 42.8 °F 82% 29.56 in 10.0 mi WNW 18.4 mph 25.3 mph N/A   Overcast
7:53 AM 48.0 °F - 43.0 °F 83% 29.57 in 10.0 mi West 12.7 mph - N/A   Mostly Cloudy
8:53 AM 46.9 °F - 43.0 °F 86% 29.60 in 10.0 mi West 13.8 mph 21.9 mph N/A   Overcast
9:53 AM 46.9 °F - 41.0 °F 80% 29.63 in 10.0 mi WNW 17.3 mph - N/A   Overcast
10:19 AM 48.2 °F - 41.0 °F 76% 29.64 in 10.0 mi West 17.3 mph - N/A   Scattered Clouds
10:53 AM 50.0 °F - 39.9 °F 68% 29.65 in 10.0 mi WNW 16.1 mph - N/A   Scattered Clouds
11:53 AM 51.1 °F - 39.9 °F 66% 29.65 in 10.0 mi WNW 16.1 mph - N/A   Scattered Clouds
12:53 PM 54.0 °F - 41.0 °F 62% 29.63 in 10.0 mi WNW 12.7 mph - N/A   Clear
1:53 PM 55.0 °F - 41.0 °F 59% 29.64 in 10.0 mi WNW 9.2 mph - N/A   Scattered Clouds
2:53 PM 57.0 °F - 41.0 °F 55% 29.65 in 10.0 mi WNW 9.2 mph - N/A   Clear
3:53 PM 57.0 °F - 41.0 °F 55% 29.67 in 10.0 mi WNW 8.1 mph - N/A   Clear
4:53 PM 53.1 °F - 39.9 °F 61% 29.68 in 10.0 mi WNW 3.5 mph - N/A   Clear
5:53 PM 46.9 °F - 37.9 °F 71% 29.69 in 10.0 mi West 4.6 mph - N/A   Clear
6:53 PM 44.1 °F 40.8 °F 37.0 °F 76% 29.72 in 10.0 mi NW 5.8 mph - N/A   Clear
7:53 PM 43.0 °F 41.3 °F 37.0 °F 80% 29.73 in 10.0 mi NNW 3.5 mph - N/A   Clear
8:53 PM 42.1 °F 37.7 °F 36.0 °F 79% 29.74 in 10.0 mi NNW 6.9 mph - N/A   Clear
9:53 PM 41.0 °F 39.0 °F 36.0 °F 82% 29.75 in 10.0 mi NE 3.5 mph - N/A   Clear
10:53 PM 37.0 °F 33.3 °F 34.0 °F 89% 29.73 in 8.0 mi NNE 4.6 mph - N/A   Clear
11:53 PM 35.1 °F - 33.1 °F 92% 29.75 in 4.0 mi Calm Calm - N/A   Clear